Probability
0 0 0 0 0 0 0 0 0 0 0 0 0 0 0 0 0 0 0 0 0 1 2 3 2 1 0 0 0 0 0 0 0 0 0 0 0 0 0 0 0 0 0 0
0 0 0 0 0 0 0 0 0 0 0 0 0 0 0 0 0 0 0 0 0 1 2 2 1 0 0 0 0 0 0 0 0 0 0 0 0 0 0 0 0 0 0 0
0 0 0 0 0 0 0 0 0 0 0 0 0 0 0 0 0 0 0 0 0 1 2 1 0 0 0 0 0 0 1 1 1 0 0 0 0 0 0 0 0 0 0 0
0 0 0 0 0 0 0 0 0 0 0 0 0 0 0 0 0 0 0 0 0 1 1 0 0 0 0 0 0 0 1 2 2 1 0 0 0 0 0 0 0 0 0 0
0 0 0 0 0 0 0 0 0 0 0 0 0 0 0 0 0 1 1 1 0 0 0 1 1 1 1 0 0 0 0 1 2 2 1 0 0 0 0 0 0 0 0 0
0 0 0 0 0 0 0 0 0 0 0 0 0 0 0 0 0 1 2 1 0 0 1 2 2 2 1 0 0 0 0 1 2 2 1 1 0 0 0 0 0 0 0 0
0 0 0 0 0 0 0 0 0 0 0 0 0 0 0 0 1 2 2 1 1 1 1 2 2 1 1 0 0 0 0 0 1 2 1 0 0 0 0 0 0 0 0 0
0 0 0 0 0 0 0 0 0 0 0 0 0 0 0 0 1 2 3 3 2 1 1 1 1 0 0 0 0 0 0 0 1 2 1 0 1 1 1 1 0 0 0 0
0 0 0 0 0 0 0 0 0 0 0 0 0 0 0 0 1 2 3 3 3 2 0 0 0 0 0 0 0 0 0 0 0 1 2 2 2 3 3 2 1 0 0 0
0 0 0 0 0 0 0 0 0 0 0 0 0 0 0 0 0 1 2 3 2 1 0 0 0 0 1 1 1 0 0 0 0 0 2 4 5 5 4 3 2 1 1 1
0 0 0 0 0 0 0 0 0 0 0 0 0 0 0 0 0 0 1 1 1 1 0 0 1 1 2 2 1 0 0 0 0 0 2 4 5 5 4 3 2 2 2 2
0 0 0 0 0 0 0 0 0 0 0 0 0 0 0 0 0 0 0 0 0 0 0 0 1 2 2 1 0 0 0 0 0 1 2 4 4 3 2 1 1 1 1 1
0 0 0 0 0 0 0 0 0 0 0 0 0 0 0 0 0 0 0 0 0 0 0 0 1 1 1 0 0 0 0 0 0 1 2 3 3 2 1 0 0 0 0 0
0 0 0 0 0 0 0 0 0 0 0 0 0 0 0 0 0 0 0 0 0 0 0 0 0 0 0 0 0 0 0 0 0 1 3 3 3 3 2 1 0 0 0 0
0 0 0 0 0 0 0 0 0 0 0 0 0 0 0 0 0 0 0 0 0 0 0 0 0 0 0 0 0 0 0 0 1 2 3 3 3 3 3 2 1 1 0 0
0 0 0 0 0 0 0 0 0 0 0 0 0 0 0 0 0 0 0 0 0 0 0 0 0 0 0 0 0 0 0 0 1 2 3 3 3 3 3 3 3 2 1 0
0 0 0 0 0 0 0 0 0 0 0 0 0 0 0 0 0 0 0 0 0 0 0 0 0 0 0 0 0 0 0 0 1 2 3 3 3 3 3 3 3 2 1 0
0 0 0 0 0 0 0 0 0 0 0 0 0 0 0 0 0 0 0 0 0 0 0 0 0 0 0 0 0 0 0 0 1 3 3 3 3 3 3 3 3 2 1 0
0 0 0 0 0 0 0 0 0 0 0 0 0 0 0 0 0 0 0 0 0 0 0 0 0 0 0 0 0 0 0 1 2 3 3 3 3 3 3 2 2 1 0 0
0 0 0 0 0 0 0 0 0 0 0 0 0 0 0 0 0 0 0 0 0 0 0 0 0 0 0 0 0 0 1 2 3 3 3 3 2 2 1 1 1 0 0 0
0 0 0 0 0 0 0 0 0 0 0 0 0 0 0 0 0 0 0 0 0 0 0 0 0 0 0 0 0 1 2 2 2 2 2 1 1 1 0 0 0 0 0 0
0 0 0 0 0 0 0 0 0 0 0 0 0 0 0 0 0 0 0 0 0 0 0 0 0 0 0 0 1 3 3 1 1 1 1 0 0 0 0 0 0 0 0 0
0 0 0 0 0 0 0 0 0 0 0 0 0 0 0 0 0 0 0 0 0 0 0 0 0 0 0 1 3 4 2 1 0 0 0 0 0 0 0 0 0 0 0 0
0 0 0 0 0 0 0 0 0 0 0 0 0 0 0 0 0 0 0 0 0 0 0 0 0 0 0 2 3 3 1 0 0 0 0 0 0 0 0 0 0 0 0 0
0 0 0 0 0 0 0 0 0 0 0 0 0 0 0 0 0 0 0 0 0 0 0 0 0 0 0 1 1 1 0 0 0 0 0 0 0 0 0 0 0 0 0 0
0 0 0 0 0 0 0 0 0 0 0 0 0 0 0 0 0 0 0 0 0 0 0 0 0 0 0 0 0 0 0 0 0 0 0 0 0 0 0 0 0 0 0 0
0 0 0 0 0 0 0 0 0 0 0 0 0 0 0 0 0 0 0 0 0 0 0 0 0 0 0 0 0 0 0 0 0 0 0 0 0 0 0 0 0 0 0 0
Wind_Speed
5 3 4 6 7 8 10 10 10 8 8 7 4 4 3 2 2 3 2 2 2 2 1 1 1 2 3 3 4 4 4 4 3 3 3 3 3 2 2 3 3 3 3 3
6 5 5 7 9 10 11 11 11 10 10 4 3 3 3 4 4 3 3 3 2 2 2 2 2 2 3 3 3 4 4 3 3 3 3 3 3 3 2 3 3 3 3 3
7 4 6 9 8 9 9 8 9 10 7 3 4 4 4 4 4 4 3 3 3 3 2 3 2 2 3 3 3 4 4 3 3 3 3 3 3 3 3 3 3 2 3 3
5 6 10 2 1 3 6 6 6 6 5 4 3 3 3 4 4 4 3 3 3 3 2 2 2 2 2 3 3 3 4 3 3 3 3 3 3 3 3 3 3 2 3 3
6 8 8 4 2 3 5 6 4 5 4 2 1 3 3 3 4 4 3 3 3 3 3 2 2 2 3 3 3 3 4 4 4 4 4 3 3 4 3 3 3 3 3 3
6 7 7 1 2 1 4 6 1 3 3 3 3 5 2 1 2 2 2 2 2 2 2 2 2 3 3 3 3 3 4 4 4 4 4 4 4 4 3 3 3 3 3 3
8 8 6 2 1 3 6 2 2 2 2 3 4 4 3 1 2 2 2 2 2 2 2 2 2 3 4 3 4 3 3 4 4 4 5 4 4 4 4 3 3 4 4 3
6 7 5 2 2 3 3 4 3 3 2 3 4 3 3 3 2 2 2 2 2 2 2 2 2 3 4 4 3 2 3 4 4 4 4 3 4 4 4 4 4 4 4 3
4 3 3 0 2 3 4 4 3 3 3 3 3 4 4 4 3 3 3 3 2 3 2 2 3 4 4 3 3 3 3 3 4 4 3 3 4 4 3 4 4 4 3 3
5 5 4 4 3 4 4 4 4 4 4 4 4 4 5 4 4 3 4 3 3 3 4 4 3 4 4 3 3 3 4 3 3 3 3 3 3 3 3 3 4 4 4 4
8 6 5 5 4 4 4 4 5 5 5 5 5 5 5 5 4 4 4 3 4 5 5 4 4 4 3 3 3 4 4 3 3 3 3 3 3 3 4 4 3 4 3 3
7 6 6 6 5 6 6 6 6 6 6 6 5 6 6 5 4 4 4 4 4 5 5 4 4 4 3 3 4 4 4 3 3 3 3 3 3 3 1 3 3 3 3 4
8 7 7 7 6 7 7 7 6 7 7 6 6 5 5 5 4 4 4 5 5 5 4 4 4 3 3 3 4 5 4 3 3 3 3 4 4 4 3 2 3 4 4 4
6 6 7 6 6 6 6 7 6 7 7 6 6 5 5 5 4 4 4 4 4 4 4 4 4 3 3 3 4 4 4 3 3 3 3 3 4 4 4 4 3 3 4 5
6 6 6 6 6 6 6 5 6 6 6 6 5 5 5 5 5 4 4 3 3 4 4 4 4 4 3 3 4 4 3 3 3 3 3 3 3 3 3 4 3 3 2 3
6 5 5 6 6 5 5 6 6 6 6 5 5 5 5 5 4 4 4 3 4 4 4 4 4 3 3 3 4 4 3 3 3 3 3 3 4 4 4 4 4 3 3 3
5 5 6 6 6 6 6 6 6 6 6 6 5 5 4 4 4 4 4 4 4 4 4 4 4 3 3 4 4 3 3 3 4 4 4 4 4 4 4 4 4 4 4 3
7 7 7 6 6 5 5 5 5 6 6 5 5 5 5 5 5 4 4 4 4 4 5 4 3 3 3 4 3 3 3 3 4 4 3 4 4 4 4 4 5 5 3 3
5 5 6 6 5 5 5 5 5 5 5 5 5 5 5 5 5 5 4 4 5 5 4 3 3 4 4 3 3 3 3 3 3 3 3 4 4 4 4 4 4 4 4 3
4 4 4 4 5 5 5 5 5 5 5 4 5 5 4 4 4 4 5 5 4 4 3 3 4 4 4 3 3 3 3 4 3 3 3 3 4 4 4 4 4 5 4 4
4 4 4 4 4 4 5 5 5 5 4 4 5 5 4 4 4 4 4 4 3 2 2 3 4 3 3 2 4 3 3 3 3 3 3 3 4 4 4 4 4 4 4 4
4 4 4 4 4 4 4 4 4 5 4 4 4 4 4 4 4 4 4 3 2 1 2 3 3 3 2 3 3 3 3 3 3 3 3 3 4 4 4 4 4 4 4 4
5 5 5 5 5 4 4 4 4 4 4 4 4 4 4 4 3 3 4 2 2 2 3 3 2 3 3 4 3 4 4 4 3 3 3 4 4 4 4 4 4 4 4 4
5 5 5 4 4 4 4 4 3 3 3 4 3 4 4 3 3 2 2 2 1 2 3 2 2 3 4 3 3 3 3 3 4 4 4 4 4 4 4 4 4 4 4 5
5 5 4 4 4 3 3 3 3 3 3 3 3 3 3 2 3 2 2 2 1 2 2 2 2 4 3 3 3 3 3 3 3 3 4 4 4 4 4 4 4 4 4 4
5 4 4 4 3 3 3 3 3 2 2 2 2 2 2 2 2 2 2 2 3 3 2 2 2 2 2 2 3 3 3 3 3 3 4 4 4 4 4 4 5 4 4 4
5 4 3 3 3 3 3 3 3 3 3 3 2 2 2 2 2 2 2 2 2 2 2 2 2 2 2 2 2 3 2 2 3 3 3 4 4 4 4 5 4 4 4 4
Wind_Direction
260 268 245 241 239 229 238 254 263 265 265 276 273 257 238 204 182 170 168 182 191 200 203 207 210 205 187 182 182 181 177 184 192 197 194 192 196 209 207 206 214 213 209 214
234 232 240 250 250 243 244 250 254 261 265 280 287 258 225 218 203 195 194 205 207 208 212 217 215 208 197 186 185 185 185 192 193 194 188 193 197 204 211 212 214 209 210 208
245 235 248 249 246 239 236 238 249 257 268 253 239 233 232 230 224 217 215 220 223 221 214 222 223 211 199 190 186 194 196 194 191 190 193 203 200 199 208 215 209 203 215 220
257 243 244 258 57 245 244 253 260 272 282 270 262 266 252 238 234 235 230 228 229 231 220 216 209 207 192 182 191 198 201 201 196 196 201 203 203 209 217 218 213 211 219 226
244 250 258 255 242 230 243 259 260 265 272 278 238 221 230 239 246 244 238 239 232 228 220 207 202 201 190 185 194 205 209 210 203 205 205 203 208 214 216 219 221 226 227 229
235 248 256 303 55 297 247 249 274 265 255 239 228 240 242 228 245 250 249 241 229 213 207 204 199 195 198 200 206 215 219 218 211 211 208 207 210 213 212 214 223 226 225 229
236 246 258 6 16 214 236 314 19 286 268 246 252 292 341 311 245 235 237 239 225 207 206 210 197 198 210 214 223 228 227 221 213 212 216 216 214 212 210 210 216 221 224 227
228 237 248 81 184 239 334 359 332 316 305 282 293 314 314 294 269 249 246 241 224 213 211 205 200 206 220 229 235 225 221 221 219 214 213 216 214 217 215 205 207 217 226 229
238 260 19 55 284 334 327 310 316 308 301 290 285 286 286 277 265 256 251 247 229 217 218 218 214 216 226 228 224 220 223 223 221 217 211 212 211 210 211 212 216 218 221 227
248 251 279 286 292 301 302 301 308 304 298 287 281 281 279 271 260 253 251 244 229 220 226 231 231 226 228 220 216 218 224 226 221 215 212 211 212 212 213 216 221 226 227 230
256 266 272 262 275 292 303 308 308 305 299 290 283 278 273 265 258 251 248 242 233 230 235 238 232 227 224 214 214 223 226 227 224 216 218 219 219 223 225 225 233 236 236 236
261 274 271 274 287 295 291 292 298 301 300 295 283 277 274 269 263 256 251 251 245 239 236 235 228 227 225 218 220 226 228 229 225 218 220 222 222 221 218 230 222 234 253 254
273 281 278 280 280 283 282 286 290 292 292 291 287 279 272 269 265 262 254 248 242 239 238 236 228 227 221 218 223 228 232 234 232 228 224 223 223 224 224 214 203 210 215 230
259 263 266 268 279 288 288 289 288 287 285 284 282 277 270 265 263 261 258 254 248 245 240 235 232 236 235 223 224 232 235 232 238 233 230 229 229 230 227 227 226 226 211 209
255 257 267 278 281 284 286 283 284 285 286 285 280 271 262 260 261 260 260 256 244 238 236 235 237 243 243 228 227 233 235 235 234 234 234 231 228 229 227 231 233 234 230 205
265 265 266 265 269 277 278 276 278 281 283 283 278 272 266 263 262 261 255 240 233 236 239 241 245 248 245 233 229 233 233 233 241 235 230 230 226 225 225 228 232 232 233 230
253 260 262 264 270 273 276 277 276 280 282 280 279 277 268 257 253 252 249 240 239 243 244 244 249 248 240 234 229 230 233 221 218 230 230 232 232 230 231 231 233 235 238 224
253 258 261 265 271 273 273 274 274 275 276 280 279 268 258 253 253 256 256 249 244 245 245 244 243 238 234 233 231 232 229 226 225 230 233 234 239 236 233 234 237 240 242 214
254 261 264 264 264 263 266 273 277 281 287 284 273 265 262 262 261 259 256 250 248 250 250 244 240 237 236 230 231 230 230 230 229 233 236 236 239 242 238 234 236 238 234 226
265 266 265 264 263 264 268 275 279 280 284 282 275 267 262 264 264 258 253 252 253 260 260 250 235 235 236 226 221 233 231 231 234 237 240 241 243 246 244 239 235 232 229 227
276 274 268 265 268 272 273 275 277 280 282 277 270 266 267 271 267 261 258 262 267 264 257 237 234 233 235 235 223 232 228 231 236 240 242 243 246 248 248 244 237 233 230 229
277 276 273 270 269 273 277 276 275 276 276 277 278 275 272 270 269 268 264 270 281 263 250 236 240 250 255 251 233 226 224 228 234 239 243 244 246 248 248 244 240 237 237 234
276 272 269 266 266 273 277 276 273 272 271 278 280 274 270 272 271 271 277 286 277 267 264 256 262 249 248 245 236 230 229 230 233 235 239 244 245 245 245 245 243 238 238 239
276 272 271 270 269 266 268 277 281 277 275 277 277 277 275 274 275 275 283 290 294 277 273 274 251 245 249 247 241 237 237 238 239 239 241 243 243 242 242 243 244 241 238 239
275 271 267 262 259 263 271 277 275 273 275 277 282 286 282 277 282 290 291 290 299 285 280 264 246 248 248 247 247 245 245 243 245 246 242 242 241 241 242 243 246 248 243 238
267 263 260 260 268 266 259 256 258 266 275 279 288 294 301 305 297 291 288 284 285 293 290 279 261 255 261 260 255 250 248 242 238 240 243 245 242 242 243 244 247 249 248 244
261 258 253 253 256 255 254 253 255 263 270 275 284 294 302 308 309 313 313 305 299 296 293 287 280 275 274 270 264 259 255 251 248 248 249 249 247 246 247 249 249 248 246 245